{"data":{"norad_id":58838,"intl_designator":"2024-017N","name":"STARLINK-31249","alt_names":[],"object_type":"PAYLOAD","status":"ACTIVE","operator":null,"country":"US","launch_date":"2024-01-24","launch_site_code":"AFWTR","launch_vehicle":null,"mission":null,"orbit_class":"UNKNOWN","rcs_meters":null,"size_class":null,"mass_kg":null,"dimensions":null,"purposes":["comms"],"wikipedia_slug":null,"has_3d_model":false,"image_url":null,"decayed_at":null,"tle_current":{"epoch":"2026-05-25T03:53:23.673984Z","epoch_age_seconds":64572,"freshness":"FRESH","line1":"1 58838U 24017N   26145.16207956 -.00000141  00000+0  73545-5 0  9995","line2":"2 58838  53.1609 209.1710 0001067  88.5717 271.5406 15.30190480131762","mean_motion":15.3019048,"eccentricity":0.0001067,"inclination_deg":53.1609,"raan_deg":209.171,"arg_perigee_deg":88.5717,"mean_anomaly_deg":271.5406,"bstar":7.3545e-6,"rev_number":13176,"period_min":94.105931177928,"perigee_km":474.51223887193,"apogee_km":475.97475026947,"semimajor_km":6853.3804945707,"source":"CELESTRAK","updated_at":"2026-05-25T13:38:18.755070Z"}}}